Location: *
(51.0333°S, 178.4667°E)
Time: 19:25:22
(UTC+00:00)

Cosmos 405 - Pass Details

Date: 15 November 2019
Orbit: 453 x 465 km, 81.3° (Epoch: 05 December)

Event Time Altitude Azimuth Distance (km) Brightness Sun altitude
Rises 10:11:11 0° 195° (SSW) 2,529 8.4 -17.2°
Reaches altitude 10° 10:13:19 10° 198° (SSW) 1,642 7.0 -17.3°
Maximum altitude 10:16:52 64° 279° (W) 522 3.2 -17.5°
Enters shadow 10:17:55 40° 344° (NNW) 696 3.4 -17.6°
